Angleton, TX

11:52 AM CST on December 05, 2019 (GMT -0600)
Brazoria County

Weather History for KLBX - November, 2019

Change the Weather History Date:

Monday, November 18, 2019

  Actual Average Record
Temperature  
Mean Temperature 60 °F -  
Max Temperature 73 °F 69 °F 84 °F (2017)
Min Temperature 46 °F 52 °F 30 °F (2014)
Degree Days  
Heating Degree Days 6    
Growing Degree Days 10 (Base 50)    
Moisture  
Dew Point 51 °F    
Average Humidity 85    
Maximum Humidity 100    
Minimum Humidity 45    
Precipitation  
Precipitation 0.00 in - - ()
Sea Level Pressure  
Sea Level Pressure 29.97 in    
Wind  
Wind Speed 1 mph ()    
Max Wind Speed 7 mph    
Max Gust Speed -    
Visibility 6.2 miles    
Events Fog    
Averages and records for this station are not official NWS values.
T = Trace of Precipitation, MM = Missing Value Source: Averaged Metar Reports

Daily Weather History Graph

Daily Weather History Graph

Search for Another Location

Airport or City:

Astronomy

Nov. 18, 2019 Rise Set
Actual Time 6:47 AM CST 5:26 PM CST
Civil Twilight 6:22 AM CST 5:51 PM CST
Nautical Twilight 5:53 AM CST 6:20 PM CST
Astronomical Twilight 5:25 AM CST 6:48 PM CST
Moon 11:12 PM CST (11/18) 12:17 PM CST (11/18)
Length of Visible Light 11h 28m
Length of Day
10h 38m
Waning Gibbous, 63% of the Moon is Illuminated
Nov 18
Waning Gibbous
Nov 19
Last Quarter
Nov 26
New
Dec 4
First Quarter
Dec 11
Full

Hourly Weather History & Observations

Time (CST) Temp. Dew Point Humidity Pressure Visibility Wind Dir Wind Speed Gust Speed Precip Events Conditions
12:16 AM 50.0 °F 48.0 °F 93% 30.01 in 2.5 mi Calm Calm - N/A   Clear
12:24 AM 50.0 °F 48.0 °F 93% 30.01 in 6.0 mi Calm Calm - N/A   Clear
12:53 AM 50.0 °F 48.9 °F 96% 30.00 in 10.0 mi Calm Calm - N/A   Clear
1:53 AM 48.9 °F 46.9 °F 93% 30.01 in 8.0 mi Calm Calm - N/A   Clear
2:53 AM 48.0 °F 46.9 °F 96% 30.00 in 8.0 mi Calm Calm - N/A   Clear
3:53 AM 46.9 °F 46.0 °F 97% 29.99 in 5.0 mi Calm Calm - N/A   Clear
4:53 AM 46.9 °F 45.0 °F 93% 29.98 in 6.0 mi Calm Calm - N/A   Clear
5:53 AM 46.9 °F 45.0 °F 93% 29.99 in 9.0 mi Calm Calm - N/A   Clear
6:53 AM 46.0 °F 44.1 °F 93% 30.00 in 7.0 mi Calm Calm - N/A   Clear
7:53 AM 52.0 °F 50.0 °F 93% 30.01 in 10.0 mi Calm Calm - N/A   Clear
8:53 AM 60.1 °F 55.9 °F 86% 30.01 in 10.0 mi NNW 3.5 mph - N/A   Clear
9:53 AM 66.0 °F 57.0 °F 73% 30.02 in 10.0 mi North 4.6 mph - N/A   Clear
10:53 AM 70.0 °F 55.9 °F 61% 30.01 in 10.0 mi NW 4.6 mph - N/A   Clear
11:53 AM 72.0 °F 55.0 °F 55% 29.98 in 10.0 mi NNW 6.9 mph - N/A   Clear
12:53 PM 73.0 °F 55.0 °F 53% 29.93 in 10.0 mi Variable 6.9 mph - N/A   Clear
1:53 PM 73.0 °F 54.0 °F 51% 29.91 in 10.0 mi Variable 3.5 mph - N/A   Clear
2:53 PM 73.9 °F 51.1 °F 45% 29.89 in 10.0 mi NNW 4.6 mph - N/A   Clear
3:53 PM 73.0 °F 51.1 °F 46% 29.90 in 10.0 mi NW 4.6 mph - N/A   Clear
5:53 PM 64.0 °F 55.9 °F 75% 29.91 in 10.0 mi South 6.9 mph - N/A   Clear
6:53 PM 60.1 °F 55.9 °F 86% 29.92 in 10.0 mi South 4.6 mph - N/A   Clear
7:53 PM 57.9 °F 55.9 °F 93% 29.95 in 10.0 mi Calm Calm - N/A   Clear
8:53 PM 54.0 °F 53.1 °F 97% 29.96 in 8.0 mi Calm Calm - N/A   Clear
9:15 PM 54.0 °F 53.1 °F 97% 29.96 in 0.2 mi SSW 3.5 mph - N/A Fog Fog
9:34 PM 54.0 °F 53.1 °F 97% 29.96 in 0.5 mi SSW 3.5 mph - N/A Fog Fog
9:53 PM 53.1 °F 52.0 °F 96% 29.97 in 0.5 mi Calm Calm - N/A Fog Fog
10:00 PM 53.1 °F 52.0 °F 96% 29.97 in 1.2 mi Calm Calm - N/A   Partly Cloudy
10:09 PM 53.1 °F 52.0 °F 96% 29.97 in 3.0 mi Calm Calm - N/A   Partly Cloudy
10:15 PM 53.1 °F 52.0 °F 96% 29.97 in 1.5 mi Calm Calm - N/A   Partly Cloudy
10:23 PM 52.0 °F 51.1 °F 97% 29.97 in 0.2 mi Calm Calm - N/A Fog Fog
10:53 PM 53.1 °F 51.1 °F 93% 29.97 in 0.2 mi Calm Calm - N/A Fog Fog
11:48 PM 51.8 °F 50.0 °F 94% 29.96 in 0.5 mi Calm Calm - N/A Fog Fog
11:53 PM 50.0 °F 50.0 °F 100% 29.96 in 0.5 mi Calm Calm - N/A Fog Fog